Terminal Aerodrome Forecast
Issued by NWS Grand Junction, CO

Home | Current Version | Previous Version | Text Only | Print | Product List | Glossary On
Versions: 1 2 3 4 5 6 7 8 9 10 11 12 13 14 15 16 17 18 19 20 21 22 23 24 25 26 27 28 29 30 31 32 33 34 35 36 37
000
FTUS45 KGJT 210852 AAB
TAFGJT
TAF AMD
KGJT 210852Z 2109/2206 VRB03KT P6SM SCT110
     FM211200 13007KT P6SM FEW200
     FM211800 27006KT P6SM SCT120 BKN200
     FM220000 15007KT P6SM BKN200=

USA.gov is the U.S. government's official web portal to all federal, state and local government web resources and services.